Regional Weather Roundup
Issued by NWS Goodland, KS

Home | Current Version | Previous Version | Graphics & Text | Print | Product List | Glossary On
Versions: 1 2 3 4 5 6 7 8 9 10 11 12 13 14 15 16 17 18 19 20 21 22 23 24 25 26 27 28 29 30 31 32 33 34 35 36 37 38 39 40 41 42 43 44 45 46 47 48 49 50
000
ASUS43 KGLD 250259
RWRGLD

GOODLAND FORECAST AREA HOURLY WEATHER ROUNDUP
NATIONAL WEATHER SERVICE GOODLAND KS
900 PM MDT FRI APR 24 2015

...OFFICIAL OBSERVATIONS...

CITY           SKY/WX    TMP DP  RH WIND       PRES   REMARKS
GOODLAND KS    CLOUDY    53  41  63 NW13      29.56R
HILL CITY KS   LGT RAIN  57  51  80 W12G23    29.53R
IMPERIAL NEB   CLOUDY    58  40  51 NW16      29.55R
MCCOOK NEB     CLOUDY    60  54  80 E5        29.51R
AKRON CO       CLOUDY    49  37  63 W9        29.63S
BURLINGTON CO  CLOUDY    49  41  74 W9        29.61R
LIMON CO       CLOUDY    44  40  85 NW6       29.68S
$$

...UNOFFICIAL OBSERVATIONS...

CITY           SKY/WX    TMP DP  RH WIND       PRES   REMARKS
COLBY KS       MOCLDY    57  46  67 N7        29.54R
GOVE KS          N/A     53  32  45 MISG        N/A
LENORA KS        N/A     55  32  41 MISG        N/A
NORTON KS      CLOUDY    57  54  88 E7        29.49S
SHARON SPRINGS   N/A     51  45  80 N5G12       N/A
KIT CARSON CO    N/A     52  43  71 MISG        N/A
YUMA CO          N/A     50  39  65 W9          N/A
$$


USA.gov is the U.S. government's official web portal to all federal, state and local government web resources and services.